Location: Ku?niki
(51.4449°N, 17.8974°E)
Time: 03:49:51
(UTC+00:00)

Cosmos 2263 Rocket - Pass Details

Date: 18 September 2020
Orbit: 822 x 849 km, 71.0° (Epoch: 22 October)

Event Time Altitude Azimuth Distance (km) Brightness Sun altitude
Rises 19:34:20 0° 250° (WSW) 3,357 5.8 -23.9°
Reaches altitude 10° 19:37:08 10° 262° (W) 2,430 5.1 -24.3°
Maximum altitude 19:41:49 27° 319° (NW) 1,555 4.2 -24.8°
Drops below altitude 10° 19:46:32 10° 17° (NNE) 2,453 4.9 -25.4°
Sets 19:49:23 0° 29° (NNE) 3,395 5.5 -25.7°
